星链-31003 (STARLINK-31003 )

导读

STARLINK-31003是美国SpaceX星链星座的一员,于2023年12月7日发射入轨,属于Starlink Gen2系列卫星,主要服务全球高速互联网接入业务。星链计划通过部署近万颗低轨卫星,实现全球无死角网络覆盖,该卫星的成功发射进一步扩充了星链星座的在轨规模。

基本信息
目录编号:
58520
目录名称:
STARLINK-31003
国际标识:
2023-191N
轨道中心:
EARTH
卫星名称:
星链-31003
卫星全名:
星链-31003 (STARLINK-31003 )
卫星状态:
在轨 (已飞行924 天)
发射日期:
2023-12-07 UTC
国别 :
美国 (US)
星等 :
--
轨道信息
数据来源 国际轨道数据 AOE轨道数据
星历时间 2026-06-16T20:54:30+0800
1天前
查看轨道信息
2026-06-13T06:00:00+0800
5天前
查看轨道信息
半长轴 6861.178km 6861.129km
偏心率 0.0001415 0.0001296
轨道倾角 43.003° 43.002°
近地点辐角 253.852° 262.232°
升交点赤经 264.785° 285.237°
平近点角 106.218° 320.645°
近地点 482.07km 482.102km
远地点 484.012km 483.882km
周期 94.267分钟 94.266分钟
每日圈数 15.275828 15.275993
详细信息
固有亮度:
5
最大亮度:
0.3
卫星平台:
Starlink v2.0 mini
覆盖范围:
全球
运营商:
太空探索技术公司
运营商所在国:
美国
制造商(研发单位):
太空探索技术公司
制造商所在国:
美国
使用方式:
暂无
卫星简介
星链(Starlink)计划是由太空探索技术公司(SpaceX)提出的一个巨型低轨卫星互联网星座项目,计划在2019年至2024年间在太空搭建由约1.2万颗卫星组成的“星链”网络,其中1584颗将部署在地球上空550千米处的近地轨道,并从2020年开始工作。该卫星仍在工作。
2D轨道图
3D轨道图
轨道高度分析图
轨道倾角分析图
轨道综合分析图
查看轨道综合分析图